SCP
-0 -0 -0 0 0 -0 0 0 0 0 0 0 0 0 0 0 0 0 0 0 0 0 -0 0 -0 0 0 0 0 0 0 -0 0 -0 0 0 0 -0 -0 -0 0 -0 0 0
-0 -0 -0 0 0 0 0 0 0 0 0 0 0 0 0 0 0 0 0 0 0 0 0 0 0 0 0 0 -0 0 0 0 0 0 0 -0 0 -0 0 -0 0 0 0 0
-0 -0 -0 0 0 0 0 0 0 0 0 0 0 -0 0 0 0 0 0 0 0 0 0 0 0 0 0 0 0 0 0 -0 -0 0 0 0 0 0 0 0 0 0 0 0
-0 0 -0 0 0 0 0 0 0 0 0 0 0 0 0 0 0 0 0 0 -0 0 0 0 0 0 0 0 0 0 0 0 0 0 0 0 0 0 0 0 0 0 0 0
0 0 0 -0 -0 0 0 0 0 0 0 0 0 0 0 0 0 0 0 0 0 0 0 0 0 0 0 0 0 0 0 0 0 0 0 0 -0 0 0 0 0 0 0 0
0 0 0 -0 -0 0 0 0 0 0 0 0 0 0 0 0 0 0 0 0 0 0 0 0 0 0 0 0 0 0 0 0 0 0 0 0 0 0 0 0 0 0 0 0
0 0 0 0 0 0 0 0 0 0 0 0 0 0 0 0 0 0 0 0 0 0 0 0 0 0 0 0 0 0 0 0 0 0 0 0 0 0 0 0 0 0 0 0
0 0 0 0 0 0 0 0 0 0 0 0 0 0 0 0 0 0 0 0 0 0 0 0 0 0 0 0 0 0 0 0 0 0 0 0 0 0 0 0 0 0 0 0
0 0 0 0 0 0 0 0 0 0 0 0 0 0 0 0 0 0 0 0 0 0 0 0 0 0 0 0 0 0 0 0 0 0 0 0 0 0 0 0 0 0 0 0
0 0 0 0 0 0 0 0 0 0 0 0 0 0 0 0 0 0 0 0 0 0 0 0 0 0 0 0 0 0 0 0 0 0 0 0 0 0 0 0 0 0 0 0
0 0 0 0 0 0 0 0 0 0 0 0 0 0 0 0 0 0 0 0 0 0 0 0 0 0 0 0 0 0 0 0 0 0 0 0 0 0 0 0 0 0 0 0
0 0 0 0 0 0 0 0 0 0 0 0 0 0 0 0 0 0 0 0 0 0 0 0 0 0 0 0 0 0 0 0 0 0 0 0 0 0 0 0 0 0 0 0
0 0 0 0 0 0 0 0 0 0 0 0 0 0 0 0 0 0 0 0 0 0 0 0 0 0 0 0 0 0 0 0 0 0 0 0 0 0 0 0 0 0 0 0
0 0 0 0 0 0 0 0 0 0 0 0 0 0 0 0 0 0 0 0 0 0 0 0 0 0 0 0 0 0 0 0 0 0 0 0 0 0 0 0 0 0 0 0
0 0 0 0 0 0 0 0 0 0 0 0 0 0 0 0 0 0 0 0 0 0 0 0 0 0 0 0 0 0 0 0 0 0 0 0 0 0 0 0 0 0 0 0
0 0 0 0 0 0 0 0 0 0 0 0 0 0 0 0 0 0 0 0 0 0 0 0 0 0 0 0 0 0 0 0 0 0 0 0 0 0 0 0 0 0 0 0
0 0 0 0 0 0 0 0 0 0 0 0 0 0 0 0 0 0 0 0 0 0 0 0 0 0 0 0 0 0 0 0 0 0 0 0 0 0 0 0 0 0 0 0
0 0 0 0 0 0 0 0 0 0 0 0 0 0 0 0 0 0 0 0 0 0 0 0 0 0 0 0 0 0 0 0 0 0 0 0 0 0 0 0 0 0 0 0
0 0 0 0 0 0 0 0 0 0 0 0 0 0 0 0 0 0 0 0 0 0 0 0 0 0 0 0 0 0 0 0 0 0 0 0 0 0 0 0 0 0 0 0
0 0 0 0 0 0 0 0 0 0 0 0 0 0 0 0 0 0 0 0 0 0 0 0 0 0 0 0 0 0 0 0 0 0 0 0 0 0 0 0 0 0 0 0
0 0 0 0 0 0 0 0 0 0 0 0 0 0 0 0 0 0 0 0 0 0 0 0 0 0 0 0 0 0 0 0 0 0 0 0 0 0 0 0 0 0 0 0
0 0 0 0 0 0 0 0 0 0 0 0 0 0 0 0 0 0 0 0 0 0 0 0 0 0 0 0 0 0 0 0 0 0 0 0 0 0 0 0 0 0 0 0
0 0 0 0 0 0 0 0 0 0 0 0 0 0 0 0 0 0 0 0 0 0 0 0 0 0 0 0 0 0 0 0 0 0 0 0 0 0 0 0 0 0 0 0
0 0 0 0 0 0 0 0 0 0 0 0 0 0 0 0 0 0 0 0 0 0 0 0 0 0 0 0 0 0 0 0 0 0 0 0 0 0 0 0 0 0 0 0
0 0 0 0 0 0 0 0 0 0 0 0 0 0 0 0 0 0 0 0 0 0 0 0 0 0 0 0 0 0 0 0 0 0 0 0 0 0 0 0 0 0 -0 0
0 0 0 0 0 0 0 0 0 0 0 0 0 0 0 0 0 0 0 0 0 0 0 0 0 0 0 0 0 0 0 0 0 0 0 0 0 0 0 0 0 0 0 0
0 0 0 0 0 0 0 0 0 0 0 0 0 0 0 0 0 0 0 0 0 0 0 0 0 0 0 0 0 0 0 0 0 0 0 0 0 0 0 0 0 0 0 0
Wind_Speed_500mb
43 43 41 39 29 6 19 14 9 26 26 22 30 23 5 5 10 17 12 17 14 18 28 28 24 8 3 7 10 23 25 19 21 28 13 11 24 29 22 17 13 19 14 10
41 42 39 38 30 8 14 13 15 23 26 14 18 20 13 15 14 16 17 19 13 5 15 15 13 11 18 6 17 9 6 18 25 24 29 25 21 30 21 31 24 25 17 7
38 39 36 36 29 9 13 14 10 20 31 41 27 27 26 25 15 8 12 5 12 14 9 10 12 12 6 8 12 11 10 30 35 25 7 23 15 18 17 26 24 29 27 36
36 37 34 33 30 8 9 15 3 14 17 27 25 15 22 24 18 19 19 15 27 28 18 19 17 15 16 12 10 11 17 26 31 26 18 13 29 31 27 26 28 29 35 36
32 33 32 31 26 4 4 14 11 11 17 14 22 14 20 28 20 11 27 21 20 8 13 3 10 4 5 10 20 21 17 25 22 28 32 39 32 31 34 33 36 35 33 29
27 30 30 30 26 8 4 11 13 14 12 17 19 22 29 26 6 8 24 17 14 15 19 13 12 10 14 9 14 20 14 24 25 32 27 37 30 30 23 29 22 23 28 9
23 24 26 25 26 21 10 14 10 17 16 14 16 1 16 16 16 12 10 10 21 15 8 2 11 13 10 10 20 20 22 24 20 27 31 36 26 13 9 16 20 24 21 19
20 19 21 21 19 19 6 13 5 12 20 17 9 12 16 10 12 16 14 10 13 13 9 13 15 17 23 25 12 20 26 20 24 25 27 30 26 9 7 15 16 15 8 8
18 15 17 18 17 16 9 10 8 9 18 5 18 11 14 15 18 13 16 10 9 5 10 12 16 22 24 5 9 7 14 12 20 22 23 24 23 17 12 9 17 21 13 13
18 13 14 15 15 15 12 4 13 5 20 8 7 8 7 10 7 15 19 11 10 9 14 16 20 21 6 12 20 15 11 12 19 18 19 6 17 13 11 15 10 15 15 17
18 13 12 13 14 14 8 5 15 1 16 7 3 6 6 6 13 12 26 8 13 11 12 15 16 9 12 10 11 7 14 11 15 12 18 14 20 10 11 13 16 21 27 33
18 15 11 11 10 11 6 3 15 6 8 11 3 1 1 4 7 17 7 10 9 14 6 3 10 8 11 14 12 7 8 8 12 13 10 6 11 11 12 22 29 32 35 39
17 16 13 10 9 8 3 5 14 4 10 11 13 14 3 1 2 3 11 8 4 5 9 17 6 5 8 14 8 1 12 3 10 9 11 9 13 24 23 27 34 33 39 46
17 16 16 11 9 7 4 3 12 6 12 12 19 6 4 1 4 2 7 2 5 5 11 16 10 10 3 7 9 10 14 6 7 14 9 15 10 24 27 33 40 45 49 52
19 17 18 14 10 7 5 6 6 4 4 15 17 14 6 4 4 6 6 12 13 15 12 11 11 6 5 6 8 11 7 11 7 10 15 14 24 31 36 37 41 47 55 60
24 20 20 16 11 7 3 9 5 4 5 11 8 15 11 7 9 10 10 10 7 8 7 3 3 3 9 6 4 13 7 2 5 11 17 24 31 34 37 43 47 50 56 62
24 23 22 18 13 11 9 4 6 8 9 8 6 12 15 15 14 11 13 9 5 6 5 8 4 10 8 6 7 18 7 2 7 12 18 30 31 39 40 42 47 51 54 58
20 20 22 16 11 9 7 11 7 7 4 8 7 7 18 24 17 13 7 10 10 5 4 5 12 10 10 4 19 9 3 4 11 17 26 33 37 39 42 44 50 55 59 60
18 18 16 10 9 11 15 12 11 10 8 10 11 10 10 27 22 9 13 8 9 8 8 5 3 8 5 15 14 8 3 10 19 28 32 32 34 38 41 45 50 51 55 57
22 27 7 13 18 17 11 4 9 12 14 11 14 18 9 27 19 20 13 11 4 8 6 8 9 5 23 15 8 2 7 13 21 28 30 34 39 40 43 44 39 42 53 57
25 11 5 3 19 12 10 12 13 17 10 18 28 20 14 14 16 11 7 5 7 6 10 7 10 8 25 19 11 1 8 16 21 22 22 28 32 38 43 40 42 41 50 50
17 8 14 13 11 13 11 11 10 10 13 14 30 26 17 17 7 7 9 6 5 4 10 7 6 14 26 17 5 5 11 17 18 17 21 25 30 33 34 37 37 44 46 48
22 7 16 13 12 3 13 18 11 10 13 20 30 22 17 13 17 6 8 8 8 6 7 7 8 29 18 9 5 9 14 13 12 15 18 24 28 30 35 32 34 40 42 46
9 13 4 12 13 14 12 13 17 14 22 34 37 33 21 16 13 7 8 3 3 7 8 10 18 25 15 4 6 11 10 7 10 12 19 25 27 27 27 31 32 35 41 45
8 10 8 17 12 8 14 8 15 17 30 41 34 23 17 12 6 7 4 9 8 8 6 16 33 20 9 4 7 6 4 6 8 12 17 22 26 26 26 31 33 39 41 45
7 10 13 12 11 20 20 22 24 24 37 37 32 10 11 10 8 10 12 8 8 11 7 29 19 12 6 7 5 1 5 6 8 11 10 14 19 23 23 27 36 32 39 41
6 11 16 14 6 4 26 28 26 30 39 19 12 11 9 6 8 11 7 7 10 21 16 18 9 8 8 7 4 8 7 7 8 8 8 10 9 14 20 24 27 27 33 33
Wind_Direction_500mb
351 354 353 355 357 16 163 262 198 165 168 207 227 239 148 49 234 184 230 293 255 249 168 208 200 200 165 103 277 206 234 287 241 219 81 319 296 306 297 272 245 256 314 320
348 353 354 355 357 354 216 246 110 171 187 227 207 241 216 235 212 195 198 218 255 163 187 203 240 187 69 192 237 332 295 240 254 239 198 201 241 248 252 281 299 282 274 265
345 352 354 355 354 338 216 277 157 164 212 257 287 201 210 201 211 280 257 277 209 208 163 245 185 157 121 193 244 19 302 269 278 295 211 256 250 227 251 280 286 302 303 318
341 349 354 356 353 340 203 238 297 156 189 225 236 257 214 220 177 235 212 220 211 208 199 195 192 148 136 179 141 218 246 271 276 301 300 259 286 292 290 271 276 275 297 305
338 347 353 357 359 62 205 302 325 209 300 201 212 147 225 231 197 203 195 244 217 259 274 244 178 210 253 206 171 240 255 274 283 284 290 288 262 276 286 280 278 279 288 287
333 343 353 359 9 71 296 315 289 280 172 211 212 213 226 220 202 226 293 228 178 192 55 31 17 328 324 345 267 283 284 287 291 277 282 293 280 270 289 293 292 308 295 347
325 337 349 358 8 22 82 326 300 272 249 228 220 322 204 230 203 258 177 257 235 77 125 220 254 270 263 276 276 277 279 273 278 277 279 268 268 52 327 304 307 297 312 323
316 328 341 350 359 5 30 341 309 287 275 199 160 228 191 183 170 204 146 71 74 123 190 253 237 243 230 245 253 299 284 274 270 272 262 277 271 111 345 350 324 358 325 344
304 314 330 342 348 356 17 319 338 280 296 112 355 198 200 193 185 155 130 121 115 203 270 249 261 267 293 277 205 195 306 267 260 251 267 282 63 66 19 4 280 34 347 333
295 295 314 329 342 349 351 269 340 280 269 67 309 293 279 302 226 196 146 154 179 245 262 254 268 270 11 272 269 239 229 258 242 241 255 244 54 12 335 271 33 349 347 330
288 277 294 316 336 348 8 253 328 228 273 80 351 343 343 275 260 286 112 200 215 241 257 264 278 239 264 258 278 313 260 262 263 224 280 265 22 292 337 11 323 333 319 311
278 268 270 297 321 343 18 56 328 248 255 23 197 200 70 34 14 338 197 6 342 11 271 307 299 251 251 279 270 166 259 341 339 338 33 113 341 337 341 319 312 310 309 305
267 261 250 274 295 328 327 346 342 297 259 211 206 172 121 87 327 308 291 196 18 236 294 309 296 302 334 276 256 105 164 354 272 333 72 356 332 316 312 316 307 300 302 305
253 254 238 250 266 294 266 89 318 290 291 268 147 178 179 75 305 281 224 241 197 244 230 243 260 254 172 297 37 301 46 186 349 278 287 350 292 341 326 320 313 309 303 300
244 247 230 235 246 262 266 265 275 320 285 322 125 153 165 127 88 95 153 193 195 204 201 229 230 18 293 209 325 264 102 26 287 358 14 338 323 321 314 308 307 308 306 304
241 237 223 225 230 222 61 196 231 281 315 279 191 105 152 138 114 115 136 157 171 218 237 227 53 20 268 263 238 80 62 51 30 336 326 318 314 313 315 310 309 320 320 311
243 233 216 214 221 208 223 1 197 192 188 246 208 152 171 164 152 138 128 148 160 239 137 228 135 159 255 291 266 104 117 341 331 317 322 320 321 315 314 326 328 319 316 319
238 227 208 205 211 217 237 249 203 176 207 247 257 111 157 189 185 158 186 174 178 182 43 184 233 131 227 265 100 123 123 297 304 328 321 316 314 317 331 333 323 327 324 322
217 195 178 183 193 202 198 228 198 203 218 273 226 183 163 179 219 125 179 234 208 112 239 176 220 179 227 120 140 163 58 337 329 321 321 319 323 336 336 326 330 326 324 325
172 150 157 198 184 212 195 163 173 195 211 237 256 245 131 185 174 193 164 197 204 202 121 103 236 181 113 141 137 88 338 333 328 323 327 331 332 335 331 332 331 327 326 330
154 179 175 115 169 152 194 201 209 185 213 206 227 211 158 200 193 170 237 163 148 241 120 248 181 202 150 162 162 263 326 327 323 323 328 334 335 340 333 332 332 330 333 340
181 167 139 148 195 205 197 198 202 215 216 168 195 179 179 157 200 111 183 206 184 256 116 234 230 108 134 159 161 284 316 323 322 331 345 339 344 343 335 334 335 338 346 343
160 189 187 196 178 169 208 188 188 195 181 160 176 162 134 159 210 119 193 201 212 86 218 217 66 130 139 144 233 286 309 314 325 355 347 350 348 347 351 347 350 346 347 349
187 193 205 210 187 214 200 203 195 127 160 165 171 166 182 148 174 166 201 128 173 227 233 200 140 146 138 187 271 291 304 314 6 359 5 5 5 2 2 3 3 13 16 20
231 230 222 204 255 185 161 114 107 163 155 163 155 162 151 162 123 213 142 181 227 217 213 107 118 128 135 241 269 285 338 25 38 17 20 25 30 30 27 28 31 37 39 36
233 244 257 204 192 177 178 186 160 163 163 161 160 168 167 177 171 183 188 207 225 155 114 113 124 123 179 212 235 163 72 76 51 30 31 39 42 34 34 27 28 25 36 26
240 237 231 282 294 159 173 179 155 169 167 178 161 178 166 129 201 194 184 216 106 110 118 111 109 167 189 207 138 122 114 95 57 52 35 24 25 39 23 19 21 19 27 25
Wind_Speed_850mb
43 43 41 39 29 6 19 14 9 26 26 22 30 23 5 5 10 17 12 17 14 18 28 28 24 8 3 7 10 23 25 19 21 28 13 11 24 29 22 17 13 19 14 10
41 42 39 38 30 8 14 13 15 23 26 14 18 20 13 15 14 16 17 19 13 5 15 15 13 11 18 6 17 9 6 18 25 24 29 25 21 30 21 31 24 25 17 7
38 39 36 36 29 9 13 14 10 20 31 41 27 27 26 25 15 8 12 5 12 14 9 10 12 12 6 8 12 11 10 30 35 25 7 23 15 18 17 26 24 29 27 36
36 37 34 33 30 8 9 15 3 14 17 27 25 15 22 24 18 19 19 15 27 28 18 19 17 15 16 12 10 11 17 26 31 26 18 13 29 31 27 26 28 29 35 36
32 33 32 31 26 4 4 14 11 11 17 14 22 14 20 28 20 11 27 21 20 8 13 3 10 4 5 10 20 21 17 25 22 28 32 39 32 31 34 33 36 35 33 29
27 30 30 30 26 8 4 11 13 14 12 17 19 22 29 26 6 8 24 17 14 15 19 13 12 10 14 9 14 20 14 24 25 32 27 37 30 30 23 29 22 23 28 9
23 24 26 25 26 21 10 14 10 17 16 14 16 1 16 16 16 12 10 10 21 15 8 2 11 13 10 10 20 20 22 24 20 27 31 36 26 13 9 16 20 24 21 19
20 19 21 21 19 19 6 13 5 12 20 17 9 12 16 10 12 16 14 10 13 13 9 13 15 17 23 25 12 20 26 20 24 25 27 30 26 9 7 15 16 15 8 8
18 15 17 18 17 16 9 10 8 9 18 5 18 11 14 15 18 13 16 10 9 5 10 12 16 22 24 5 9 7 14 12 20 22 23 24 23 17 12 9 17 21 13 13
18 13 14 15 15 15 12 4 13 5 20 8 7 8 7 10 7 15 19 11 10 9 14 16 20 21 6 12 20 15 11 12 19 18 19 6 17 13 11 15 10 15 15 17
18 13 12 13 14 14 8 5 15 1 16 7 3 6 6 6 13 12 26 8 13 11 12 15 16 9 12 10 11 7 14 11 15 12 18 14 20 10 11 13 16 21 27 33
18 15 11 11 10 11 6 3 15 6 8 11 3 1 1 4 7 17 7 10 9 14 6 3 10 8 11 14 12 7 8 8 12 13 10 6 11 11 12 22 29 32 35 39
17 16 13 10 9 8 3 5 14 4 10 11 13 14 3 1 2 3 11 8 4 5 9 17 6 5 8 14 8 1 12 3 10 9 11 9 13 24 23 27 34 33 39 46
17 16 16 11 9 7 4 3 12 6 12 12 19 6 4 1 4 2 7 2 5 5 11 16 10 10 3 7 9 10 14 6 7 14 9 15 10 24 27 33 40 45 49 52
19 17 18 14 10 7 5 6 6 4 4 15 17 14 6 4 4 6 6 12 13 15 12 11 11 6 5 6 8 11 7 11 7 10 15 14 24 31 36 37 41 47 55 60
24 20 20 16 11 7 3 9 5 4 5 11 8 15 11 7 9 10 10 10 7 8 7 3 3 3 9 6 4 13 7 2 5 11 17 24 31 34 37 43 47 50 56 62
24 23 22 18 13 11 9 4 6 8 9 8 6 12 15 15 14 11 13 9 5 6 5 8 4 10 8 6 7 18 7 2 7 12 18 30 31 39 40 42 47 51 54 58
20 20 22 16 11 9 7 11 7 7 4 8 7 7 18 24 17 13 7 10 10 5 4 5 12 10 10 4 19 9 3 4 11 17 26 33 37 39 42 44 50 55 59 60
18 18 16 10 9 11 15 12 11 10 8 10 11 10 10 27 22 9 13 8 9 8 8 5 3 8 5 15 14 8 3 10 19 28 32 32 34 38 41 45 50 51 55 57
22 27 7 13 18 17 11 4 9 12 14 11 14 18 9 27 19 20 13 11 4 8 6 8 9 5 23 15 8 2 7 13 21 28 30 34 39 40 43 44 39 42 53 57
25 11 5 3 19 12 10 12 13 17 10 18 28 20 14 14 16 11 7 5 7 6 10 7 10 8 25 19 11 1 8 16 21 22 22 28 32 38 43 40 42 41 50 50
17 8 14 13 11 13 11 11 10 10 13 14 30 26 17 17 7 7 9 6 5 4 10 7 6 14 26 17 5 5 11 17 18 17 21 25 30 33 34 37 37 44 46 48
22 7 16 13 12 3 13 18 11 10 13 20 30 22 17 13 17 6 8 8 8 6 7 7 8 29 18 9 5 9 14 13 12 15 18 24 28 30 35 32 34 40 42 46
9 13 4 12 13 14 12 13 17 14 22 34 37 33 21 16 13 7 8 3 3 7 8 10 18 25 15 4 6 11 10 7 10 12 19 25 27 27 27 31 32 35 41 45
8 10 8 17 12 8 14 8 15 17 30 41 34 23 17 12 6 7 4 9 8 8 6 16 33 20 9 4 7 6 4 6 8 12 17 22 26 26 26 31 33 39 41 45
7 10 13 12 11 20 20 22 24 24 37 37 32 10 11 10 8 10 12 8 8 11 7 29 19 12 6 7 5 1 5 6 8 11 10 14 19 23 23 27 36 32 39 41
6 11 16 14 6 4 26 28 26 30 39 19 12 11 9 6 8 11 7 7 10 21 16 18 9 8 8 7 4 8 7 7 8 8 8 10 9 14 20 24 27 27 33 33
Wind_Direction_850mb
351 354 353 355 357 16 163 262 198 165 168 207 227 239 148 49 234 184 230 293 255 249 168 208 200 200 165 103 277 206 234 287 241 219 81 319 296 306 297 272 245 256 314 320
348 353 354 355 357 354 216 246 110 171 187 227 207 241 216 235 212 195 198 218 255 163 187 203 240 187 69 192 237 332 295 240 254 239 198 201 241 248 252 281 299 282 274 265
345 352 354 355 354 338 216 277 157 164 212 257 287 201 210 201 211 280 257 277 209 208 163 245 185 157 121 193 244 19 302 269 278 295 211 256 250 227 251 280 286 302 303 318
341 349 354 356 353 340 203 238 297 156 189 225 236 257 214 220 177 235 212 220 211 208 199 195 192 148 136 179 141 218 246 271 276 301 300 259 286 292 290 271 276 275 297 305
338 347 353 357 359 62 205 302 325 209 300 201 212 147 225 231 197 203 195 244 217 259 274 244 178 210 253 206 171 240 255 274 283 284 290 288 262 276 286 280 278 279 288 287
333 343 353 359 9 71 296 315 289 280 172 211 212 213 226 220 202 226 293 228 178 192 55 31 17 328 324 345 267 283 284 287 291 277 282 293 280 270 289 293 292 308 295 347
325 337 349 358 8 22 82 326 300 272 249 228 220 322 204 230 203 258 177 257 235 77 125 220 254 270 263 276 276 277 279 273 278 277 279 268 268 52 327 304 307 297 312 323
316 328 341 350 359 5 30 341 309 287 275 199 160 228 191 183 170 204 146 71 74 123 190 253 237 243 230 245 253 299 284 274 270 272 262 277 271 111 345 350 324 358 325 344
304 314 330 342 348 356 17 319 338 280 296 112 355 198 200 193 185 155 130 121 115 203 270 249 261 267 293 277 205 195 306 267 260 251 267 282 63 66 19 4 280 34 347 333
295 295 314 329 342 349 351 269 340 280 269 67 309 293 279 302 226 196 146 154 179 245 262 254 268 270 11 272 269 239 229 258 242 241 255 244 54 12 335 271 33 349 347 330
288 277 294 316 336 348 8 253 328 228 273 80 351 343 343 275 260 286 112 200 215 241 257 264 278 239 264 258 278 313 260 262 263 224 280 265 22 292 337 11 323 333 319 311
278 268 270 297 321 343 18 56 328 248 255 23 197 200 70 34 14 338 197 6 342 11 271 307 299 251 251 279 270 166 259 341 339 338 33 113 341 337 341 319 312 310 309 305
267 261 250 274 295 328 327 346 342 297 259 211 206 172 121 87 327 308 291 196 18 236 294 309 296 302 334 276 256 105 164 354 272 333 72 356 332 316 312 316 307 300 302 305
253 254 238 250 266 294 266 89 318 290 291 268 147 178 179 75 305 281 224 241 197 244 230 243 260 254 172 297 37 301 46 186 349 278 287 350 292 341 326 320 313 309 303 300
244 247 230 235 246 262 266 265 275 320 285 322 125 153 165 127 88 95 153 193 195 204 201 229 230 18 293 209 325 264 102 26 287 358 14 338 323 321 314 308 307 308 306 304
241 237 223 225 230 222 61 196 231 281 315 279 191 105 152 138 114 115 136 157 171 218 237 227 53 20 268 263 238 80 62 51 30 336 326 318 314 313 315 310 309 320 320 311
243 233 216 214 221 208 223 1 197 192 188 246 208 152 171 164 152 138 128 148 160 239 137 228 135 159 255 291 266 104 117 341 331 317 322 320 321 315 314 326 328 319 316 319
238 227 208 205 211 217 237 249 203 176 207 247 257 111 157 189 185 158 186 174 178 182 43 184 233 131 227 265 100 123 123 297 304 328 321 316 314 317 331 333 323 327 324 322
217 195 178 183 193 202 198 228 198 203 218 273 226 183 163 179 219 125 179 234 208 112 239 176 220 179 227 120 140 163 58 337 329 321 321 319 323 336 336 326 330 326 324 325
172 150 157 198 184 212 195 163 173 195 211 237 256 245 131 185 174 193 164 197 204 202 121 103 236 181 113 141 137 88 338 333 328 323 327 331 332 335 331 332 331 327 326 330
154 179 175 115 169 152 194 201 209 185 213 206 227 211 158 200 193 170 237 163 148 241 120 248 181 202 150 162 162 263 326 327 323 323 328 334 335 340 333 332 332 330 333 340
181 167 139 148 195 205 197 198 202 215 216 168 195 179 179 157 200 111 183 206 184 256 116 234 230 108 134 159 161 284 316 323 322 331 345 339 344 343 335 334 335 338 346 343
160 189 187 196 178 169 208 188 188 195 181 160 176 162 134 159 210 119 193 201 212 86 218 217 66 130 139 144 233 286 309 314 325 355 347 350 348 347 351 347 350 346 347 349
187 193 205 210 187 214 200 203 195 127 160 165 171 166 182 148 174 166 201 128 173 227 233 200 140 146 138 187 271 291 304 314 6 359 5 5 5 2 2 3 3 13 16 20
231 230 222 204 255 185 161 114 107 163 155 163 155 162 151 162 123 213 142 181 227 217 213 107 118 128 135 241 269 285 338 25 38 17 20 25 30 30 27 28 31 37 39 36
233 244 257 204 192 177 178 186 160 163 163 161 160 168 167 177 171 183 188 207 225 155 114 113 124 123 179 212 235 163 72 76 51 30 31 39 42 34 34 27 28 25 36 26
240 237 231 282 294 159 173 179 155 169 167 178 161 178 166 129 201 194 184 216 106 110 118 111 109 167 189 207 138 122 114 95 57 52 35 24 25 39 23 19 21 19 27 25